User: anonymous   Login
Location: Unspecified
(0.0000°N, 0.0000°E)
Time: 10:10:06
(UTC+00:00)
Language:

FALCON 9 R/B - Orbit

View from above orbital plane
View from above orbital plane
View from above satellite
View from above satellite

Ground track
Ground track

The orbit data is extracted from the following two-line orbital elements,

1 37253U 10066K   17116.80803615 +.00004318 +00000-0 +44786-3 0  9998
2 37253 034.5061 067.6683 4278695 090.9556 316.8262 06.89170380157049
Epoch (UTC): 26 April 2017 19:23:34
Eccentricity: 0.4278695
inclination: 34.5061°
perigee height: 295 km
apogee height: 10276 km
right ascension of ascending node: 67.6683°
argument of perigee: 90.9556°
revolutions per day: 6.89170380
mean anomaly at epoch: 316.8262°
orbit number at epoch: 15704

The dashed part of the orbit path shows where the satellite is in the earth's shadow,  

DLR